ATLAS 5 CENTAUR DEB, 44848

Orbit data source: Space-Track

ATLAS 5 CENTAUR DEB, 44848 is space debris in HEO originally from a launch on Wed, 17 Sep 2014 UTC launched from the Air Force Eastern Test Range (AFETR). Debris objects in space refer to the collection of defunct objects orbiting the Earth. Examples of debris include non-operational satellites, rocket bodies, and fragments generated from explosions, collisions, or faulty payload assembly.

Loading next visibility...
Identifier
44848, 2014-055CG
Orbit
HEO
Country
Flag of USUS
Related business
Flag of USUnited Launch Alliance/Lockheed Martin (US)
Manufacturer
Unknown
Mission
Spacecraft
Bus & Motor
Unknown
Mass
Unknown
Launch date (UTC)
2014-09-17 (12 years ago)
Launch vehicle
Unknown
Launch site
Air Force Eastern Test Range (AFETR)
Object type
Payload
Rocket body
Debris
Shape & HBR
Unknown shape, 1.1 m
Radar Cross Section
Medium (>0.1 m² and <1 m²)

Expand to show TLE details & history
Last TLE update: 6 days ago

TLE from 6 days ago
0 ATLAS 5 CENTAUR DEB
1 44848U 14055CG  26167.08418993 -.00000094  00000-0  00000-0 0  9991
2 44848  20.7008 118.3716 4945884 210.8936 107.1964  1.88592570 47245
Epoch: 2026-06-16T02:01Z
TLE epoch observation values (Epoch: 2026-06-16T02:01:14.009Z)
Latitude
0.00001°
Longitude
-176.37088°
Altitude
29,952.647 km
Speed
2.746 km/s
True Right ascension
07h 53m 11s
True Declination
0° 00' 00"
Sunlit
Object was in daylight at epoch
Visualization orbit readout
Latitude
Unknown
Longitude
Unknown
Altitude
Unknown
Speed
Unknown
Apparent Right ascension
Unknown
Apparent Declination
Unknown
Sunlit
N/A
Visualization observer readout
Local Sidereal Time
21:37:43
Azimuth
Unknown
Elevation
Unknown
Doppler factor
Unknown
Orbital elements
Apogee altitude
34,984.185 km
Perigee altitude
7,608.99 km
Semi-major axis
27,674.724 km
Eccentricity
0.49459
Inclination
20.7008°
RAAN
118.3716°
Arg. of periapsis
210.8936°
True anomaly
149.10589°
Mean anomaly
107.1964°
Eccentric anomaly
129.16697°
Mean motion
0.47143 °/min
Orbital period
763.63 mins
BSTAR
0
Loading maneuver chart data...
Computing Atmospheric mass density...

Documentation

Showing up to 5 results
|